Time,TemperatureF,DewpointF,PressureIn,WindDirection,WindDirectionDegrees,WindSpeedMPH,WindSpeedGustMPH,Humidity,HourlyPrecipIn,Conditions,Clouds,dailyrainin,SoftwareType,DateUTC
2013-03-24 00:00:00,31.5,20.0,29.79,WNW,289,1.0,2.0,62,0.00,,,0.00,Wunderground v.1.15,2013-03-24 04:00:00,
2013-03-24 00:02:00,31.5,20.0,29.79,West,265,2.0,3.0,62,0.00,,,0.00,Wunderground v.1.15,2013-03-24 04:02:00,
2013-03-24 00:06:00,31.4,19.9,29.79,WNW,302,2.0,3.0,62,0.00,,,0.00,Wunderground v.1.15,2013-03-24 04:06:00,
2013-03-24 00:10:00,31.4,19.9,29.79,WNW,293,3.0,7.0,62,0.00,,,0.00,Wunderground v.1.15,2013-03-24 04:10:00,
2013-03-24 00:16:00,31.5,20.0,29.79,West,280,4.0,7.0,62,0.00,,,0.00,Wunderground v.1.15,2013-03-24 04:16:00,
2013-03-24 00:22:00,31.5,20.0,29.79,WNW,302,3.0,5.0,62,0.00,,,0.00,Wunderground v.1.15,2013-03-24 04:22:00,
2013-03-24 00:27:00,31.6,20.1,29.79,West,271,3.0,5.0,62,0.00,,,0.00,Wunderground v.1.15,2013-03-24 04:27:00,
2013-03-24 00:32:00,31.6,19.7,29.78,WNW,291,3.0,4.0,61,0.00,,,0.00,Wunderground v.1.15,2013-03-24 04:32:00,
2013-03-24 00:37:00,31.6,20.1,29.78,WNW,299,3.0,5.0,62,0.00,,,0.00,Wunderground v.1.15,2013-03-24 04:37:00,
2013-03-24 00:42:00,31.4,19.9,29.78,NW,310,3.0,4.0,62,0.00,,,0.00,Wunderground v.1.15,2013-03-24 04:42:00,
2013-03-24 00:50:00,31.2,19.7,29.78,NNW,333,3.0,3.0,62,0.00,,,0.00,Wunderground v.1.15,2013-03-24 04:50:00,
2013-03-24 00:55:00,31.1,19.6,29.78,NNW,335,2.0,3.0,62,0.00,,,0.00,Wunderground v.1.15,2013-03-24 04:55:00,
2013-03-24 01:00:00,31.1,19.6,29.78,West,268,3.0,5.0,62,0.00,,,0.00,Wunderground v.1.15,2013-03-24 05:00:00,
2013-03-24 01:05:00,31.0,19.9,29.79,WNW,283,3.0,7.0,63,0.00,,,0.00,Wunderground v.1.15,2013-03-24 05:05:00,
2013-03-24 01:10:00,31.1,20.0,29.78,NW,314,4.0,5.0,63,0.00,,,0.00,Wunderground v.1.15,2013-03-24 05:10:00,
2013-03-24 01:17:00,31.0,19.9,29.78,WNW,296,4.0,5.0,63,0.00,,,0.00,Wunderground v.1.15,2013-03-24 05:17:00,
2013-03-24 01:22:00,31.0,19.9,29.78,WNW,287,4.0,6.0,63,0.00,,,0.00,Wunderground v.1.15,2013-03-24 05:22:00,
2013-03-24 01:28:00,31.0,19.9,29.78,WNW,287,5.0,6.0,63,0.00,,,0.00,Wunderground v.1.15,2013-03-24 05:28:00,
2013-03-24 01:34:00,30.8,19.7,29.78,NW,322,4.0,6.0,63,0.00,,,0.00,Wunderground v.1.15,2013-03-24 05:34:00,
2013-03-24 01:40:00,30.8,20.0,29.78,West,280,4.0,4.0,64,0.00,,,0.00,Wunderground v.1.15,2013-03-24 05:40:00,
2013-03-24 01:46:00,30.8,20.0,29.78,WNW,288,4.0,6.0,64,0.00,,,0.00,Wunderground v.1.15,2013-03-24 05:46:00,
2013-03-24 01:51:00,30.8,20.0,29.78,NW,304,5.0,5.0,64,0.00,,,0.00,Wunderground v.1.15,2013-03-24 05:51:00,
2013-03-24 01:56:00,30.9,20.1,29.78,West,277,5.0,7.0,64,0.00,,,0.00,Wunderground v.1.15,2013-03-24 05:56:00,
2013-03-24 02:02:00,31.0,20.2,29.78,NW,312,5.0,5.0,64,0.00,,,0.00,Wunderground v.1.15,2013-03-24 06:02:00,
2013-03-24 02:07:00,31.0,20.2,29.78,WNW,288,4.0,6.0,64,0.00,,,0.00,Wunderground v.1.15,2013-03-24 06:07:00,
2013-03-24 02:14:00,30.9,20.5,29.78,West,263,4.0,12.0,65,0.00,,,0.00,Wunderground v.1.15,2013-03-24 06:14:00,
2013-03-24 02:20:00,30.8,20.4,29.78,WSW,238,4.0,4.0,65,0.00,,,0.00,Wunderground v.1.15,2013-03-24 06:20:00,
2013-03-24 02:25:00,30.8,20.4,29.78,West,271,4.0,9.0,65,0.00,,,0.00,Wunderground v.1.15,2013-03-24 06:25:00,
2013-03-24 02:31:00,31.0,20.6,29.77,West,281,6.0,8.0,65,0.00,,,0.00,Wunderground v.1.15,2013-03-24 06:31:00,
2013-03-24 02:37:00,31.0,21.0,29.77,NW,306,6.0,8.0,66,0.00,,,0.00,Wunderground v.1.15,2013-03-24 06:37:00,
2013-03-24 02:43:00,31.1,21.1,29.77,NNW,329,5.0,8.0,66,0.00,,,0.00,Wunderground v.1.15,2013-03-24 06:43:00,
2013-03-24 02:48:00,31.1,21.1,29.78,West,266,5.0,8.0,66,0.00,,,0.00,Wunderground v.1.15,2013-03-24 06:48:00,
2013-03-24 02:54:00,31.2,21.2,29.78,West,274,6.0,10.0,66,0.00,,,0.00,Wunderground v.1.15,2013-03-24 06:54:00,
2013-03-24 03:00:00,31.2,21.2,29.77,West,279,6.0,6.0,66,0.00,,,0.00,Wunderground v.1.15,2013-03-24 07:00:00,
2013-03-24 03:05:00,31.2,21.2,29.77,WNW,295,6.0,11.0,66,0.00,,,0.00,Wunderground v.1.15,2013-03-24 07:05:00,
2013-03-24 03:11:00,31.1,21.4,29.77,West,279,7.0,14.0,67,0.00,,,0.00,Wunderground v.1.15,2013-03-24 07:11:00,
2013-03-24 03:17:00,31.1,21.4,29.76,NW,315,7.0,14.0,67,0.00,,,0.00,Wunderground v.1.15,2013-03-24 07:17:00,
2013-03-24 03:22:00,31.0,21.3,29.76,West,267,6.0,9.0,67,0.00,,,0.00,Wunderground v.1.15,2013-03-24 07:22:00,
2013-03-24 03:27:00,31.0,21.3,29.76,WNW,292,6.0,11.0,67,0.00,,,0.00,Wunderground v.1.15,2013-03-24 07:27:00,
2013-03-24 03:32:00,31.1,21.4,29.76,West,259,6.0,7.0,67,0.00,,,0.00,Wunderground v.1.15,2013-03-24 07:32:00,
2013-03-24 03:37:00,31.0,21.7,29.76,NW,309,6.0,8.0,68,0.00,,,0.00,Wunderground v.1.15,2013-03-24 07:37:00,
2013-03-24 03:42:00,31.0,21.7,29.76,West,273,6.0,6.0,68,0.00,,,0.00,Wunderground v.1.15,2013-03-24 07:42:00,
2013-03-24 03:48:00,30.9,21.6,29.76,WNW,288,6.0,11.0,68,0.00,,,0.00,Wunderground v.1.15,2013-03-24 07:48:00,
2013-03-24 03:55:00,30.8,21.8,29.76,West,270,5.0,7.0,69,0.00,,,0.00,Wunderground v.1.15,2013-03-24 07:55:00,
2013-03-24 04:01:00,30.8,21.8,29.76,WNW,288,5.0,9.0,69,0.00,,,0.00,Wunderground v.1.15,2013-03-24 08:01:00,
2013-03-24 04:07:00,30.8,21.8,29.76,WNW,293,5.0,9.0,69,0.00,,,0.00,Wunderground v.1.15,2013-03-24 08:07:00,
2013-03-24 04:12:00,30.8,21.8,29.76,West,273,5.0,8.0,69,0.00,,,0.00,Wunderground v.1.15,2013-03-24 08:12:00,
2013-03-24 04:17:00,30.8,21.8,29.76,NW,323,5.0,9.0,69,0.00,,,0.00,Wunderground v.1.15,2013-03-24 08:17:00,
2013-03-24 04:23:00,30.8,21.8,29.76,NNE,26,4.0,5.0,69,0.00,,,0.00,Wunderground v.1.15,2013-03-24 08:23:00,
2013-03-24 04:29:00,30.7,22.1,29.75,NW,311,5.0,6.0,70,0.00,,,0.00,Wunderground v.1.15,2013-03-24 08:29:00,
2013-03-24 04:34:00,30.6,22.0,29.75,WNW,299,5.0,7.0,70,0.00,,,0.00,Wunderground v.1.15,2013-03-24 08:34:00,
2013-03-24 04:40:00,30.6,22.0,29.75,NNW,334,6.0,6.0,70,0.00,,,0.00,Wunderground v.1.15,2013-03-24 08:40:00,
2013-03-24 04:45:00,30.7,22.1,29.76,NNW,329,5.0,6.0,70,0.00,,,0.00,Wunderground v.1.15,2013-03-24 08:45:00,
2013-03-24 04:50:00,30.8,21.8,29.76,WNW,290,4.0,6.0,69,0.00,,,0.00,Wunderground v.1.15,2013-03-24 08:50:00,
2013-03-24 04:57:00,30.6,22.0,29.76,West,279,4.0,6.0,70,0.00,,,0.00,Wunderground v.1.15,2013-03-24 08:57:00,
2013-03-24 05:02:00,30.7,21.7,29.76,West,280,4.0,4.0,69,0.00,,,0.00,Wunderground v.1.15,2013-03-24 09:02:00,
2013-03-24 05:07:00,30.7,21.7,29.76,WNW,296,4.0,4.0,69,0.00,,,0.00,Wunderground v.1.15,2013-03-24 09:07:00,
2013-03-24 05:14:00,30.7,22.1,29.76,NW,304,4.0,6.0,70,0.00,,,0.00,Wunderground v.1.15,2013-03-24 09:14:00,
2013-03-24 05:19:00,30.6,22.0,29.76,NNW,344,4.0,4.0,70,0.00,,,0.00,Wunderground v.1.15,2013-03-24 09:19:00,
2013-03-24 05:24:00,30.6,22.0,29.76,NNW,342,3.0,6.0,70,0.00,,,0.00,Wunderground v.1.15,2013-03-24 09:24:00,
2013-03-24 05:30:00,30.5,21.9,29.76,WNW,301,4.0,6.0,70,0.00,,,0.00,Wunderground v.1.15,2013-03-24 09:30:00,
2013-03-24 05:35:00,30.4,21.8,29.76,West,271,5.0,8.0,70,0.00,,,0.00,Wunderground v.1.15,2013-03-24 09:35:00,
2013-03-24 05:41:00,30.4,21.8,29.76,WNW,292,5.0,5.0,70,0.00,,,0.00,Wunderground v.1.15,2013-03-24 09:41:00,
2013-03-24 05:47:00,30.4,21.8,29.76,WSW,254,4.0,5.0,70,0.00,,,0.00,Wunderground v.1.15,2013-03-24 09:47:00,
2013-03-24 05:53:00,30.5,21.9,29.76,NW,317,3.0,5.0,70,0.00,,,0.00,Wunderground v.1.15,2013-03-24 09:53:00,
2013-03-24 05:59:00,30.4,21.8,29.76,West,273,3.0,3.0,70,0.00,,,0.00,Wunderground v.1.15,2013-03-24 09:59:00,
2013-03-24 06:05:00,30.3,21.7,29.78,West,279,2.0,4.0,70,0.00,,,0.00,Wunderground v.1.15,2013-03-24 10:05:00,
2013-03-24 06:11:00,30.2,21.6,29.78,WNW,296,3.0,4.0,70,0.00,,,0.00,Wunderground v.1.15,2013-03-24 10:11:00,
2013-03-24 06:17:00,30.1,21.8,29.78,WSW,241,3.0,4.0,71,0.00,,,0.00,Wunderground v.1.15,2013-03-24 10:17:00,
2013-03-24 06:22:00,30.0,21.7,29.79,West,273,3.0,4.0,71,0.00,,,0.00,Wunderground v.1.15,2013-03-24 10:22:00,
2013-03-24 06:28:00,29.9,21.6,29.79,NNE,14,3.0,4.0,71,0.00,,,0.00,Wunderground v.1.15,2013-03-24 10:28:00,
2013-03-24 06:33:00,30.1,21.8,29.79,West,271,3.0,7.0,71,0.00,,,0.00,Wunderground v.1.15,2013-03-24 10:33:00,
2013-03-24 06:40:00,30.1,21.8,29.79,NW,314,3.0,4.0,71,0.00,,,0.00,Wunderground v.1.15,2013-03-24 10:40:00,
2013-03-24 06:46:00,29.9,21.6,29.79,NW,310,2.0,4.0,71,0.00,,,0.00,Wunderground v.1.15,2013-03-24 10:46:00,
2013-03-24 06:51:00,29.9,21.6,29.79,NW,326,3.0,3.0,71,0.00,,,0.00,Wunderground v.1.15,2013-03-24 10:51:00,
2013-03-24 06:57:00,29.8,21.5,29.79,NW,310,3.0,5.0,71,0.00,,,0.00,Wunderground v.1.15,2013-03-24 10:57:00,
2013-03-24 07:02:00,29.7,21.4,29.80,West,269,3.0,3.0,71,0.00,,,0.00,Wunderground v.1.15,2013-03-24 11:02:00,
2013-03-24 07:10:00,29.8,21.5,29.80,West,273,4.0,4.0,71,0.00,,,0.00,Wunderground v.1.15,2013-03-24 11:10:00,
2013-03-24 07:15:00,29.8,21.9,29.81,West,261,3.0,5.0,72,0.00,,,0.00,Wunderground v.1.15,2013-03-24 11:15:00,
2013-03-24 07:21:00,29.9,21.6,29.81,West,281,3.0,4.0,71,0.00,,,0.00,Wunderground v.1.15,2013-03-24 11:21:00,
2013-03-24 07:27:00,30.3,22.0,29.80,NNW,327,4.0,6.0,71,0.00,,,0.00,Wunderground v.1.15,2013-03-24 11:27:00,
2013-03-24 07:33:00,30.5,22.2,29.81,WSW,258,4.0,5.0,71,0.00,,,0.00,Wunderground v.1.15,2013-03-24 11:33:00,
2013-03-24 07:38:00,30.6,22.3,29.80,NW,310,4.0,5.0,71,0.00,,,0.00,Wunderground v.1.15,2013-03-24 11:38:00,
2013-03-24 07:45:00,30.8,22.2,29.80,NW,317,4.0,5.0,70,0.00,,,0.00,Wunderground v.1.15,2013-03-24 11:45:00,
2013-03-24 07:50:00,30.9,22.3,29.80,WNW,282,4.0,4.0,70,0.00,,,0.00,Wunderground v.1.15,2013-03-24 11:50:00,
2013-03-24 07:55:00,31.2,22.5,29.80,WNW,287,5.0,10.0,70,0.00,,,0.00,Wunderground v.1.15,2013-03-24 11:55:00,
2013-03-24 08:00:00,31.5,22.5,29.80,WNW,288,5.0,9.0,69,0.00,,,0.00,Wunderground v.1.15,2013-03-24 12:00:00,
2013-03-24 08:08:00,31.9,22.9,29.80,NW,313,5.0,9.0,69,0.00,,,0.00,Wunderground v.1.15,2013-03-24 12:08:00,
2013-03-24 08:13:00,32.1,22.7,29.79,WNW,296,5.0,13.0,68,0.00,,,0.00,Wunderground v.1.15,2013-03-24 12:13:00,
2013-03-24 08:18:00,32.5,22.8,29.79,NW,307,5.0,13.0,67,0.00,,,0.00,Wunderground v.1.15,2013-03-24 12:18:00,
2013-03-24 08:23:00,32.8,23.0,29.79,NNW,327,5.0,10.0,67,0.00,,,0.00,Wunderground v.1.15,2013-03-24 12:23:00,
2013-03-24 08:29:00,33.2,22.7,29.78,WNW,286,5.0,5.0,65,0.00,,,0.00,Wunderground v.1.15,2013-03-24 12:29:00,
2013-03-24 08:35:00,33.5,23.0,29.78,NNW,346,6.0,7.0,65,0.00,,,0.00,Wunderground v.1.15,2013-03-24 12:35:00,
2013-03-24 08:40:00,34.0,23.1,29.78,WNW,284,5.0,5.0,64,0.00,,,0.00,Wunderground v.1.15,2013-03-24 12:40:00,
2013-03-24 08:45:00,34.4,23.1,29.78,NW,310,5.0,15.0,63,0.00,,,0.00,Wunderground v.1.15,2013-03-24 12:45:00,
2013-03-24 08:50:00,34.6,22.9,29.78,NNW,344,6.0,6.0,62,0.00,,,0.00,Wunderground v.1.15,2013-03-24 12:50:00,
2013-03-24 08:56:00,35.1,23.4,29.79,NNW,348,6.0,8.0,62,0.00,,,0.00,Wunderground v.1.15,2013-03-24 12:56:00,
2013-03-24 09:02:00,35.6,23.1,29.79,NNW,340,5.0,5.0,60,0.00,,,0.00,Wunderground v.1.15,2013-03-24 13:02:00,
2013-03-24 09:08:00,35.8,23.3,29.79,North,5,6.0,11.0,60,0.00,,,0.00,Wunderground v.1.15,2013-03-24 13:08:00,
2013-03-24 09:14:00,36.1,23.5,29.80,WNW,300,5.0,8.0,60,0.00,,,0.00,Wunderground v.1.15,2013-03-24 13:14:00,
2013-03-24 09:20:00,36.7,23.7,29.80,NNE,18,5.0,5.0,59,0.00,,,0.00,Wunderground v.1.15,2013-03-24 13:20:00,
2013-03-24 09:26:00,37.3,23.9,29.81,WNW,296,5.0,14.0,58,0.00,,,0.00,Wunderground v.1.15,2013-03-24 13:26:00,
2013-03-24 09:32:00,37.7,24.2,29.81,North,360,6.0,6.0,58,0.00,,,0.00,Wunderground v.1.15,2013-03-24 13:32:00,
2013-03-24 09:37:00,37.8,23.5,29.81,NW,322,5.0,8.0,56,0.00,,,0.00,Wunderground v.1.15,2013-03-24 13:37:00,
2013-03-24 09:42:00,37.8,23.5,29.81,NNW,342,6.0,7.0,56,0.00,,,0.00,Wunderground v.1.15,2013-03-24 13:42:00,
2013-03-24 09:47:00,38.0,24.1,29.81,NW,317,6.0,7.0,57,0.00,,,0.00,Wunderground v.1.15,2013-03-24 13:47:00,
2013-03-24 09:53:00,38.3,23.5,29.81,NNW,331,5.0,6.0,55,0.00,,,0.00,Wunderground v.1.15,2013-03-24 13:53:00,
2013-03-24 10:00:00,38.8,24.4,29.81,NNE,32,4.0,5.0,56,0.00,,,0.00,Wunderground v.1.15,2013-03-24 14:00:00,
2013-03-24 10:05:00,39.2,24.4,29.81,West,271,3.0,5.0,55,0.00,,,0.00,Wunderground v.1.15,2013-03-24 14:05:00,
2013-03-24 10:10:00,39.4,24.1,29.81,NW,311,4.0,8.0,54,0.00,,,0.00,Wunderground v.1.15,2013-03-24 14:10:00,
2013-03-24 10:16:00,39.6,24.3,29.80,NW,310,6.0,10.0,54,0.00,,,0.00,Wunderground v.1.15,2013-03-24 14:16:00,
2013-03-24 10:22:00,39.7,24.0,29.81,WNW,288,6.0,6.0,53,0.00,,,0.00,Wunderground v.1.15,2013-03-24 14:22:00,
2013-03-24 10:27:00,39.8,24.0,29.80,WNW,302,6.0,11.0,53,0.00,,,0.00,Wunderground v.1.15,2013-03-24 14:27:00,
2013-03-24 10:32:00,40.4,25.1,29.80,NNW,327,6.0,9.0,54,0.00,,,0.00,Wunderground v.1.15,2013-03-24 14:32:00,
2013-03-24 10:37:00,40.4,24.6,29.81,NNW,346,5.0,9.0,53,0.00,,,0.00,Wunderground v.1.15,2013-03-24 14:37:00,
2013-03-24 10:43:00,40.0,23.8,29.80,West,281,4.0,12.0,52,0.00,,,0.00,Wunderground v.1.15,2013-03-24 14:43:00,
2013-03-24 10:49:00,40.6,24.3,29.80,NE,36,4.0,5.0,52,0.00,,,0.00,Wunderground v.1.15,2013-03-24 14:49:00,
2013-03-24 10:55:00,41.3,24.5,29.80,NW,317,4.0,5.0,51,0.00,,,0.00,Wunderground v.1.15,2013-03-24 14:55:00,
2013-03-24 11:00:00,41.0,23.8,29.80,NNE,33,4.0,5.0,50,0.00,,,0.00,Wunderground v.1.15,2013-03-24 15:00:00,
2013-03-24 11:05:00,41.0,24.2,29.80,NNE,30,4.0,5.0,51,0.00,,,0.00,Wunderground v.1.15,2013-03-24 15:05:00,
2013-03-24 11:10:00,41.4,25.5,29.80,NE,52,4.0,4.0,53,0.00,,,0.00,Wunderground v.1.15,2013-03-24 15:10:00,
2013-03-24 11:15:00,41.7,23.9,29.80,NE,51,3.0,4.0,49,0.00,,,0.00,Wunderground v.1.15,2013-03-24 15:15:00,
2013-03-24 11:21:00,41.1,25.3,29.80,WNW,299,3.0,3.0,53,0.00,,,0.00,Wunderground v.1.15,2013-03-24 15:21:00,
2013-03-24 11:27:00,42.2,25.3,29.79,West,272,2.0,9.0,51,0.00,,,0.00,Wunderground v.1.15,2013-03-24 15:27:00,
2013-03-24 11:33:00,43.1,26.2,29.79,WNW,292,3.0,12.0,51,0.00,,,0.00,Wunderground v.1.15,2013-03-24 15:33:00,
2013-03-24 11:38:00,42.9,24.5,29.79,NNE,33,5.0,12.0,48,0.00,,,0.00,Wunderground v.1.15,2013-03-24 15:38:00,
2013-03-24 11:45:00,42.0,23.7,29.80,SSE,147,5.0,7.0,48,0.00,,,0.00,Wunderground v.1.15,2013-03-24 15:45:00,
2013-03-24 11:50:00,42.1,24.8,29.79,WNW,297,5.0,8.0,50,0.00,,,0.00,Wunderground v.1.15,2013-03-24 15:50:00,
2013-03-24 11:55:00,42.5,24.2,29.79,West,277,5.0,8.0,48,0.00,,,0.00,Wunderground v.1.15,2013-03-24 15:55:00,
2013-03-24 12:02:00,43.4,26.0,29.79,NE,49,4.0,5.0,50,0.00,,,0.00,Wunderground v.1.15,2013-03-24 16:02:00,
2013-03-24 12:07:00,42.4,24.1,29.79,West,281,4.0,7.0,48,0.00,,,0.00,Wunderground v.1.15,2013-03-24 16:07:00,
2013-03-24 12:13:00,42.7,25.3,29.79,North,11,4.0,5.0,50,0.00,,,0.00,Wunderground v.1.15,2013-03-24 16:13:00,
2013-03-24 12:19:00,42.9,24.5,29.79,NNW,340,4.0,4.0,48,0.00,,,0.00,Wunderground v.1.15,2013-03-24 16:19:00,
2013-03-24 12:25:00,43.1,24.7,29.79,WNW,296,5.0,10.0,48,0.00,,,0.00,Wunderground v.1.15,2013-03-24 16:25:00,
2013-03-24 12:30:00,43.8,25.4,29.78,WNW,299,6.0,7.0,48,0.00,,,0.00,Wunderground v.1.15,2013-03-24 16:30:00,
2013-03-24 12:35:00,44.4,25.4,29.78,NW,321,5.0,7.0,47,0.00,,,0.00,Wunderground v.1.15,2013-03-24 16:35:00,
2013-03-24 12:41:00,43.9,24.4,29.78,NNW,337,3.0,4.0,46,0.00,,,0.00,Wunderground v.1.15,2013-03-24 16:41:00,
2013-03-24 12:47:00,43.6,25.2,29.77,NNE,30,3.0,7.0,48,0.00,,,0.00,Wunderground v.1.15,2013-03-24 16:47:00,
2013-03-24 12:52:00,42.9,24.0,29.77,NW,321,3.0,5.0,47,0.00,,,0.00,Wunderground v.1.15,2013-03-24 16:52:00,
2013-03-24 12:58:00,43.4,26.0,29.77,NNW,342,3.0,5.0,50,0.00,,,0.00,Wunderground v.1.15,2013-03-24 16:58:00,
2013-03-24 13:03:00,43.9,25.5,29.78,WNW,303,3.0,4.0,48,0.00,,,0.00,Wunderground v.1.15,2013-03-24 17:03:00,
2013-03-24 13:09:00,44.2,25.7,29.77,WNW,291,4.0,4.0,48,0.00,,,0.00,Wunderground v.1.15,2013-03-24 17:09:00,
2013-03-24 13:15:00,45.4,26.8,29.76,North,351,4.0,6.0,48,0.00,,,0.00,Wunderground v.1.15,2013-03-24 17:15:00,
2013-03-24 13:20:00,45.3,26.2,29.76,NW,317,4.0,4.0,47,0.00,,,0.00,Wunderground v.1.15,2013-03-24 17:20:00,
2013-03-24 13:25:00,45.2,25.6,29.76,NNE,19,4.0,5.0,46,0.00,,,0.00,Wunderground v.1.15,2013-03-24 17:25:00,
2013-03-24 13:31:00,44.2,25.2,29.76,North,9,4.0,4.0,47,0.00,,,0.00,Wunderground v.1.15,2013-03-24 17:31:00,
2013-03-24 13:37:00,43.8,25.4,29.77,West,279,5.0,7.0,48,0.00,,,0.00,Wunderground v.1.15,2013-03-24 17:37:00,
2013-03-24 13:42:00,44.2,25.2,29.76,NNW,327,4.0,7.0,47,0.00,,,0.00,Wunderground v.1.15,2013-03-24 17:42:00,
2013-03-24 13:47:00,44.4,25.4,29.75,NNE,21,5.0,8.0,47,0.00,,,0.00,Wunderground v.1.15,2013-03-24 17:47:00,
2013-03-24 13:53:00,45.2,25.6,29.75,NNW,345,5.0,5.0,46,0.00,,,0.00,Wunderground v.1.15,2013-03-24 17:53:00,
2013-03-24 14:00:00,45.3,26.2,29.76,NE,37,5.0,5.0,47,0.00,,,0.00,Wunderground v.1.15,2013-03-24 18:00:00,
2013-03-24 14:05:00,46.4,27.2,29.75,WNW,292,3.0,12.0,47,0.00,,,0.00,Wunderground v.1.15,2013-03-24 18:05:00,
2013-03-24 14:10:00,46.1,25.9,29.75,NW,319,5.0,5.0,45,0.00,,,0.00,Wunderground v.1.15,2013-03-24 18:10:00,
2013-03-24 14:17:00,45.5,25.4,29.75,NW,307,4.0,6.0,45,0.00,,,0.00,Wunderground v.1.15,2013-03-24 18:17:00,
2013-03-24 14:22:00,45.2,26.1,29.75,NNE,18,4.0,6.0,47,0.00,,,0.00,Wunderground v.1.15,2013-03-24 18:22:00,
2013-03-24 14:27:00,45.0,26.5,29.75,NE,52,5.0,6.0,48,0.00,,,0.00,Wunderground v.1.15,2013-03-24 18:27:00,
2013-03-24 14:35:00,45.3,26.2,29.75,North,11,4.0,7.0,47,0.00,,,0.00,Wunderground v.1.15,2013-03-24 18:35:00,
2013-03-24 14:40:00,45.4,26.3,29.75,WNW,294,4.0,6.0,47,0.00,,,0.00,Wunderground v.1.15,2013-03-24 18:40:00,
2013-03-24 14:45:00,45.8,26.7,29.74,North,5,5.0,11.0,47,0.00,,,0.00,Wunderground v.1.15,2013-03-24 18:45:00,
2013-03-24 14:50:00,46.1,26.4,29.74,North,355,6.0,10.0,46,0.00,,,0.00,Wunderground v.1.15,2013-03-24 18:50:00,
2013-03-24 14:55:00,46.0,26.4,29.74,WNW,298,5.0,10.0,46,0.00,,,0.00,Wunderground v.1.15,2013-03-24 18:55:00,
2013-03-24 15:00:00,46.1,26.4,29.73,ENE,63,4.0,8.0,46,0.00,,,0.00,Wunderground v.1.15,2013-03-24 19:00:00,
2013-03-24 15:07:00,46.4,26.7,29.73,NNE,26,4.0,8.0,46,0.00,,,0.00,Wunderground v.1.15,2013-03-24 19:07:00,
2013-03-24 15:13:00,46.0,26.4,29.73,NNE,30,4.0,8.0,46,0.00,,,0.00,Wunderground v.1.15,2013-03-24 19:13:00,
2013-03-24 15:18:00,46.2,27.1,29.73,NNW,340,4.0,8.0,47,0.00,,,0.00,Wunderground v.1.15,2013-03-24 19:18:00,
2013-03-24 15:25:00,46.3,26.1,29.73,NNW,337,4.0,8.0,45,0.00,,,0.00,Wunderground v.1.15,2013-03-24 19:25:00,
2013-03-24 15:30:00,45.7,26.1,29.72,North,349,5.0,6.0,46,0.00,,,0.00,Wunderground v.1.15,2013-03-24 19:30:00,
2013-03-24 15:35:00,46.0,26.4,29.72,ENE,58,5.0,10.0,46,0.00,,,0.00,Wunderground v.1.15,2013-03-24 19:35:00,
2013-03-24 15:42:00,45.7,26.1,29.72,NNE,21,5.0,6.0,46,0.00,,,0.00,Wunderground v.1.15,2013-03-24 19:42:00,
2013-03-24 15:47:00,46.0,26.9,29.72,NW,318,4.0,6.0,47,0.00,,,0.00,Wunderground v.1.15,2013-03-24 19:47:00,
2013-03-24 15:52:00,46.3,27.2,29.71,North,355,3.0,5.0,47,0.00,,,0.00,Wunderground v.1.15,2013-03-24 19:52:00,
2013-03-24 15:58:00,46.3,27.2,29.71,NW,312,4.0,5.0,47,0.00,,,0.00,Wunderground v.1.15,2013-03-24 19:58:00,
2013-03-24 16:02:00,46.4,27.2,29.71,NE,36,4.0,6.0,47,0.00,,,0.00,Wunderground v.1.15,2013-03-24 20:02:00,
2013-03-24 16:10:00,46.3,27.7,29.71,NW,305,3.0,3.0,48,0.00,,,0.00,Wunderground v.1.15,2013-03-24 20:10:00,
2013-03-24 16:15:00,46.4,26.7,29.71,NNW,346,3.0,6.0,46,0.00,,,0.00,Wunderground v.1.15,2013-03-24 20:15:00,
2013-03-24 16:20:00,46.1,25.9,29.70,NW,323,4.0,4.0,45,0.00,,,0.00,Wunderground v.1.15,2013-03-24 20:20:00,
2013-03-24 16:25:00,46.0,26.9,29.70,NE,49,3.0,4.0,47,0.00,,,0.00,Wunderground v.1.15,2013-03-24 20:25:00,
2013-03-24 16:30:00,46.0,26.9,29.71,NE,49,2.0,2.0,47,0.00,,,0.00,Wunderground v.1.15,2013-03-24 20:30:00,
2013-03-24 16:37:00,45.8,26.2,29.71,North,355,3.0,5.0,46,0.00,,,0.00,Wunderground v.1.15,2013-03-24 20:37:00,
2013-03-24 16:42:00,45.6,26.5,29.71,NNE,15,3.0,5.0,47,0.00,,,0.00,Wunderground v.1.15,2013-03-24 20:42:00,
2013-03-24 16:47:00,45.4,26.8,29.71,ENE,76,3.0,7.0,48,0.00,,,0.00,Wunderground v.1.15,2013-03-24 20:47:00,
2013-03-24 16:52:00,45.4,26.3,29.71,North,5,2.0,4.0,47,0.00,,,0.00,Wunderground v.1.15,2013-03-24 20:52:00,
2013-03-24 16:58:00,45.0,25.4,29.71,NNE,25,3.0,5.0,46,0.00,,,0.00,Wunderground v.1.15,2013-03-24 20:58:00,
2013-03-24 17:05:00,44.8,25.8,29.71,ENE,60,4.0,4.0,47,0.00,,,0.00,Wunderground v.1.15,2013-03-24 21:05:00,
2013-03-24 17:10:00,44.6,25.6,29.71,NNE,24,3.0,4.0,47,0.00,,,0.00,Wunderground v.1.15,2013-03-24 21:10:00,
2013-03-24 17:16:00,44.5,25.5,29.71,NNE,13,3.0,4.0,47,0.00,,,0.00,Wunderground v.1.15,2013-03-24 21:16:00,
2013-03-24 17:22:00,44.5,25.0,29.71,NW,309,3.0,4.0,46,0.00,,,0.00,Wunderground v.1.15,2013-03-24 21:22:00,
2013-03-24 17:27:00,44.5,25.5,29.71,NW,325,3.0,5.0,47,0.00,,,0.00,Wunderground v.1.15,2013-03-24 21:27:00,
2013-03-24 17:32:00,44.4,24.4,29.71,North,351,3.0,4.0,45,0.00,,,0.00,Wunderground v.1.15,2013-03-24 21:32:00,
2013-03-24 17:37:00,44.3,25.8,29.72,NW,322,3.0,5.0,48,0.00,,,0.00,Wunderground v.1.15,2013-03-24 21:37:00,
2013-03-24 17:43:00,44.1,25.6,29.72,ENE,58,3.0,4.0,48,0.00,,,0.00,Wunderground v.1.15,2013-03-24 21:43:00,
2013-03-24 17:50:00,44.0,25.5,29.72,NE,34,2.0,5.0,48,0.00,,,0.00,Wunderground v.1.15,2013-03-24 21:50:00,
2013-03-24 17:55:00,43.8,24.9,29.72,NNE,14,3.0,5.0,47,0.00,,,0.00,Wunderground v.1.15,2013-03-24 21:55:00,
2013-03-24 18:01:00,43.7,25.3,29.72,NW,304,2.0,3.0,48,0.00,,,0.00,Wunderground v.1.15,2013-03-24 22:01:00,
2013-03-24 18:07:00,43.7,25.3,29.73,NNE,29,3.0,5.0,48,0.00,,,0.00,Wunderground v.1.15,2013-03-24 22:07:00,
2013-03-24 18:12:00,43.5,25.6,29.73,NNE,24,3.0,3.0,49,0.00,,,0.00,Wunderground v.1.15,2013-03-24 22:12:00,
2013-03-24 18:17:00,43.3,25.4,29.73,NNE,33,3.0,3.0,49,0.00,,,0.00,Wunderground v.1.15,2013-03-24 22:17:00,
2013-03-24 18:22:00,43.2,25.3,29.73,NE,41,2.0,3.0,49,0.00,,,0.00,Wunderground v.1.15,2013-03-24 22:22:00,
2013-03-24 18:27:00,42.9,26.0,29.73,NNE,19,1.0,3.0,51,0.00,,,0.00,Wunderground v.1.15,2013-03-24 22:27:00,
2013-03-24 18:34:00,42.6,25.2,29.73,NNE,19,1.0,1.0,50,0.00,,,0.00,Wunderground v.1.15,2013-03-24 22:34:00,
2013-03-24 18:39:00,42.4,25.5,29.73,NNE,15,1.0,2.0,51,0.00,,,0.00,Wunderground v.1.15,2013-03-24 22:39:00,
2013-03-24 18:44:00,42.2,25.3,29.73,NE,36,1.0,3.0,51,0.00,,,0.00,Wunderground v.1.15,2013-03-24 22:44:00,
2013-03-24 18:50:00,41.9,25.1,29.73,NE,44,1.0,2.0,51,0.00,,,0.00,Wunderground v.1.15,2013-03-24 22:50:00,
2013-03-24 18:57:00,41.6,25.3,29.73,ENE,67,1.0,2.0,52,0.00,,,0.00,Wunderground v.1.15,2013-03-24 22:57:00,
2013-03-24 19:03:00,41.3,25.0,29.72,NE,40,1.0,3.0,52,0.00,,,0.00,Wunderground v.1.15,2013-03-24 23:03:00,
2013-03-24 19:08:00,41.1,25.3,29.72,NE,40,1.0,3.0,53,0.00,,,0.00,Wunderground v.1.15,2013-03-24 23:08:00,
2013-03-24 19:14:00,40.8,25.4,29.72,NE,40,1.0,1.0,54,0.00,,,0.00,Wunderground v.1.15,2013-03-24 23:14:00,
2013-03-24 19:19:00,40.5,25.1,29.72,North,5,0.0,1.0,54,0.00,,,0.00,Wunderground v.1.15,2013-03-24 23:19:00,
2013-03-24 19:26:00,40.2,25.3,29.73,North,360,1.0,1.0,55,0.00,,,0.00,Wunderground v.1.15,2013-03-24 23:26:00,
2013-03-24 19:31:00,39.9,25.0,29.73,North,5,0.0,0.0,55,0.00,,,0.00,Wunderground v.1.15,2013-03-24 23:31:00,
2013-03-24 19:36:00,39.5,24.7,29.73,North,360,0.0,0.0,55,0.00,,,0.00,Wunderground v.1.15,2013-03-24 23:36:00,
2013-03-24 19:42:00,39.2,25.6,29.73,North,5,0.0,1.0,58,0.00,,,0.00,Wunderground v.1.15,2013-03-24 23:42:00,
2013-03-24 19:48:00,38.8,24.9,29.73,NNE,18,1.0,2.0,57,0.00,,,0.00,Wunderground v.1.15,2013-03-24 23:48:00,
2013-03-24 19:53:00,38.4,25.3,29.73,NNE,31,1.0,2.0,59,0.00,,,0.00,Wunderground v.1.15,2013-03-24 23:53:00,
2013-03-24 19:59:00,38.1,25.0,29.73,NNE,31,1.0,2.0,59,0.00,,,0.00,Wunderground v.1.15,2013-03-24 23:59:00,
2013-03-24 20:04:00,37.9,24.8,29.73,NNE,31,1.0,1.0,59,0.00,,,0.00,Wunderground v.1.15,2013-03-25 00:04:00,
2013-03-24 20:09:00,37.7,25.1,29.73,NNE,31,0.0,1.0,60,0.00,,,0.00,Wunderground v.1.15,2013-03-25 00:09:00,
2013-03-24 20:14:00,37.5,25.7,29.73,NNE,31,0.0,0.0,62,0.00,,,0.00,Wunderground v.1.15,2013-03-25 00:14:00,
2013-03-24 20:22:00,37.2,25.4,29.73,NNE,31,0.0,0.0,62,0.00,,,0.00,Wunderground v.1.15,2013-03-25 00:22:00,
2013-03-24 20:27:00,36.9,25.9,29.73,NNE,31,0.0,1.0,64,0.00,,,0.00,Wunderground v.1.15,2013-03-25 00:27:00,
2013-03-24 20:33:00,36.6,25.9,29.73,NNE,30,0.0,0.0,65,0.00,,,0.00,Wunderground v.1.15,2013-03-25 00:33:00,
2013-03-24 20:39:00,36.4,26.1,29.73,NNE,31,0.0,0.0,66,0.00,,,0.00,Wunderground v.1.15,2013-03-25 00:39:00,
2013-03-24 20:44:00,36.1,25.5,29.74,NNE,31,0.0,0.0,65,0.00,,,0.00,Wunderground v.1.15,2013-03-25 00:44:00,
2013-03-24 20:49:00,35.8,25.5,29.75,NNE,31,0.0,1.0,66,0.00,,,0.00,Wunderground v.1.15,2013-03-25 00:49:00,
2013-03-24 20:55:00,35.4,25.2,29.75,NNE,31,1.0,1.0,66,0.00,,,0.00,Wunderground v.1.15,2013-03-25 00:55:00,
2013-03-24 21:01:00,35.1,25.6,29.76,NNE,31,1.0,1.0,68,0.00,,,0.00,Wunderground v.1.15,2013-03-25 01:01:00,
2013-03-24 21:06:00,34.9,25.0,29.76,NNE,31,0.0,1.0,67,0.00,,,0.00,Wunderground v.1.15,2013-03-25 01:06:00,
2013-03-24 21:11:00,34.8,25.7,29.76,NNE,30,0.0,0.0,69,0.00,,,0.00,Wunderground v.1.15,2013-03-25 01:11:00,
2013-03-24 21:17:00,34.6,25.8,29.77,NNE,30,0.0,1.0,70,0.00,,,0.00,Wunderground v.1.15,2013-03-25 01:17:00,
2013-03-24 21:23:00,34.4,25.3,29.77,NNE,30,0.0,1.0,69,0.00,,,0.00,Wunderground v.1.15,2013-03-25 01:23:00,
2013-03-24 21:28:00,34.3,25.5,29.77,NNE,31,0.0,1.0,70,0.00,,,0.00,Wunderground v.1.15,2013-03-25 01:28:00,
2013-03-24 21:34:00,34.0,25.2,29.76,NNE,31,0.0,1.0,70,0.00,,,0.00,Wunderground v.1.15,2013-03-25 01:34:00,
2013-03-24 21:40:00,33.7,26.3,29.77,NNE,30,1.0,1.0,74,0.00,,,0.00,Wunderground v.1.15,2013-03-25 01:40:00,
2013-03-24 21:46:00,33.4,25.7,29.77,NNE,31,1.0,1.0,73,0.00,,,0.00,Wunderground v.1.15,2013-03-25 01:46:00,
2013-03-24 21:51:00,33.2,25.8,29.77,NNE,31,0.0,0.0,74,0.00,,,0.00,Wunderground v.1.15,2013-03-25 01:51:00,
2013-03-24 21:57:00,33.0,25.9,29.77,NNE,30,0.0,0.0,75,0.00,,,0.00,Wunderground v.1.15,2013-03-25 01:57:00,
2013-03-24 22:02:00,32.8,25.7,29.76,NNE,31,0.0,0.0,75,0.00,,,0.00,Wunderground v.1.15,2013-03-25 02:02:00,
2013-03-24 22:08:00,32.4,25.4,29.77,South,184,1.0,1.0,75,0.00,,,0.00,Wunderground v.1.15,2013-03-25 02:08:00,
2013-03-24 22:14:00,32.2,25.5,29.77,South,184,1.0,1.0,76,0.00,,,0.00,Wunderground v.1.15,2013-03-25 02:14:00,
2013-03-24 22:21:00,32.0,25.0,29.77,South,184,0.0,0.0,75,0.00,,,0.00,Wunderground v.1.15,2013-03-25 02:21:00,
2013-03-24 22:27:00,31.9,25.2,29.77,South,184,0.0,1.0,76,0.00,,,0.00,Wunderground v.1.15,2013-03-25 02:27:00,
2013-03-24 22:33:00,31.7,25.3,29.76,South,184,0.0,0.0,77,0.00,,,0.00,Wunderground v.1.15,2013-03-25 02:33:00,
2013-03-24 22:38:00,31.6,25.2,29.76,South,184,0.0,0.0,77,0.00,,,0.00,Wunderground v.1.15,2013-03-25 02:38:00,
2013-03-24 22:43:00,31.5,25.4,29.76,South,184,0.0,1.0,78,0.00,,,0.00,Wunderground v.1.15,2013-03-25 02:43:00,
2013-03-24 22:48:00,31.5,25.4,29.76,South,184,0.0,1.0,78,0.00,,,0.00,Wunderground v.1.15,2013-03-25 02:48:00,
2013-03-24 22:54:00,31.4,25.9,29.76,SE,134,0.0,2.0,80,0.00,,,0.00,Wunderground v.1.15,2013-03-25 02:54:00,
2013-03-24 22:59:00,31.4,25.3,29.76,SE,134,1.0,2.0,78,0.00,,,0.00,Wunderground v.1.15,2013-03-25 02:59:00,
2013-03-24 23:06:00,31.3,25.8,29.76,SSE,164,1.0,2.0,80,0.00,,,0.00,Wunderground v.1.15,2013-03-25 03:06:00,
2013-03-24 23:13:00,31.2,26.0,29.76,SSE,165,1.0,1.0,81,0.00,,,0.00,Wunderground v.1.15,2013-03-25 03:13:00,
2013-03-24 23:19:00,31.2,25.7,29.76,SSE,165,0.0,1.0,80,0.00,,,0.00,Wunderground v.1.15,2013-03-25 03:19:00,
2013-03-24 23:26:00,31.1,26.0,29.76,SSE,165,0.0,0.0,81,0.00,,,0.00,Wunderground v.1.15,2013-03-25 03:26:00,
2013-03-24 23:31:00,31.2,25.4,29.76,SSE,164,0.0,0.0,79,0.00,,,0.00,Wunderground v.1.15,2013-03-25 03:31:00,
2013-03-24 23:36:00,31.3,25.8,29.76,SSE,165,0.0,0.0,80,0.00,,,0.00,Wunderground v.1.15,2013-03-25 03:36:00,
2013-03-24 23:41:00,31.3,25.8,29.76,SSE,165,0.0,0.0,80,0.00,,,0.00,Wunderground v.1.15,2013-03-25 03:41:00,
2013-03-24 23:47:00,31.3,25.8,29.75,SSE,165,0.0,1.0,80,0.00,,,0.00,Wunderground v.1.15,2013-03-25 03:47:00,
2013-03-24 23:53:00,31.3,26.1,29.75,SSE,165,1.0,1.0,81,0.00,,,0.00,Wunderground v.1.15,2013-03-25 03:53:00,
2013-03-24 23:59:00,31.3,25.8,29.75,SSE,164,1.0,1.0,80,0.00,,,0.00,Wunderground v.1.15,2013-03-25 03:59:00,